EW3863 Weather Reports


time (UTC)temp
F
wind
direction
speed
knots
gust
knots
rain 1hr
in
rain 24hr
in
rain mn
in
humidity
%
barometer
mb
20260506204531 59 34 0.0 0.9 0.00 0.00 0.00 82 1010.0
20260506203024 59 23 0.0 1.7 0.00 0.00 0.00 83 1009.9
20260506201533 59 20 0.0 0.9 0.00 0.00 0.00 83 1009.9
20260506200029 60 20 0.0 0.9 0.00 0.00 0.00 84 1009.7
20260506194522 61 32 0.0 0.9 0.00 0.00 0.00 84 1009.4
20260506193032 61 34 0.0 2.6 0.00 0.00 0.00 83 1009.2
20260506191521 62 20 0.0 3.5 0.00 0.00 0.00 83 1009.0
20260506190020 62 26 0.0 1.7 0.00 0.00 0.00 83 1008.8
20260506184519 62 22 0.0 0.9 0.00 0.00 0.00 85 1008.5
20260506183019 63 46 0.0 1.7 0.00 0.00 0.00 86 1008.5
20260506181534 63 32 0.0 0.9 0.00 0.00 0.00 85 1008.5
20260506180017 63 28 0.0 0.9 0.00 0.00 0.00 85 1008.3
20260506174517 64 27 0.0 0.9 0.00 0.00 0.00 84 1008.2
20260506173019 64 337 0.0 0.9 0.00 0.00 0.00 84 1008.1
20260506171517 64 13 0.0 3.5 0.00 0.00 0.00 85 1007.9
20260506170014 65 16 0.0 3.5 0.00 0.00 0.00 85 1007.8
20260506164514 65 34 0.0 4.3 0.00 0.00 0.00 86 1007.8
20260506163016 66 19 0.0 2.6 0.00 0.00 0.00 86 1007.9
20260506161512 66 352 0.0 3.5 0.00 0.00 0.00 87 1008.0
20260506160012 66 37 0.0 1.7 0.00 0.00 0.00 88 1008.0
20260506154511 65 35 0.0 6.1 0.00 0.00 0.00 92 1007.9
20260506153010 64 262 0.0 4.3 0.00 0.00 0.00 96 1007.9
20260506151509 64 4 0.9 4.3 0.00 0.00 0.00 96 1007.8
20260506150014 65 34 0.0 4.3 0.00 0.00 0.00 96 1007.9
20260506144507 65 17 0.0 4.3 0.00 0.00 0.00 96 1007.9
20260506143005 64 46 0.0 5.2 0.00 0.00 0.00 97 1008.0
20260506141503 64 352 0.0 3.5 0.00 0.00 0.00 96 1008.2
20260506140005 64 22 0.0 1.7 0.00 0.00 0.00 97 1008.4
20260506134600 64 23 0.0 3.5 0.00 0.00 0.00 97 1008.4
20260506133126 64 29 0.0 3.5 0.00 0.00 0.00 96 1008.5
20260506131559 63 12 0.0 6.1 0.00 0.00 0.00 97 1008.7
20260506130121 63 12 0.0 3.5 0.00 0.00 0.00 97 1008.7
20260506124559 63 17 0.0 0.9 0.00 0.00 0.00 96 1008.8
20260506123057 63 234 0.0 0.9 0.00 0.00 0.00 93 1008.9
20260506121556 66 232 0.0 5.2 0.00 0.00 0.00 90 1009.1
20260506120053 65 278 0.0 0.9 0.00 0.00 0.00 96 1008.5
20260506114556 65 41 0.0 0.9 0.00 0.00 0.00 96 1008.8
20260506113051 65 38 0.0 4.3 0.00 0.00 0.00 96 1008.8
20260506111549 65 44 0.0 2.6 0.00 0.00 0.00 96 1008.9
20260506110048 66 40 0.0 2.6 0.00 0.00 0.00 96 1009.1
20260506104608 65 24 0.0 3.5 0.00 0.00 0.00 97 1009.2
20260506103043 65 127 0.0 4.3 0.00 0.00 0.00 98 1009.4
20260506101544 64 129 0.0 4.3 0.00 0.00 0.00 99 1009.5
20260506100042 62 300 0.9 103.4 0.00 0.00 0.00 98 1009.4
20260506094538 61 143 0.0 1.7 0.00 0.00 0.00 98 1009.4
20260506093032 61 20 0.0 1.7 0.00 0.00 0.00 98 1009.5
20260506091530 60 181 0.0 4.3 0.00 0.00 0.00 98 1009.7
20260506090033 59 282 0.0 2.6 0.00 0.00 0.00 98 1009.8
20260506084526 59 304 0.0 1.7 0.00 0.00 0.00 98 1009.8
20260506083036 59 98 0.0 1.7 0.00 0.00 0.00 98 1009.8
20260506081523 59 320 0.0 2.6 0.00 0.00 0.00 98 1009.7
20260506073019 58 54 0.0 2.6 0.00 0.00 0.00 98 1009.6
20260506071521 58 302 0.0 0.9 0.00 0.00 0.00 98 1009.8
20260506061516 58 19 0.0 0.9 0.00 0.00 0.00 98 1010.1
20260506044510 57 53 0.0 0.9 0.00 0.00 0.00 98 1010.5
20260506043014 57 293 0.9 5.2 0.00 0.00 0.00 98 1010.2
20260506041508 57 277 0.0 3.5 0.00 0.00 0.00 98 1010.3
20260506040008 57 337 0.0 0.9 0.00 0.00 0.00 98 1010.2
20260506034506 56 11 0.0 0.9 0.00 0.00 0.00 98 1010.2
20260506033006 56 108 0.0 0.0 0.00 0.00 0.00 98 1009.9
20260506031504 56 160 0.0 0.9 0.00 0.00 0.00 98 1010.2
20260506030004 56 173 0.0 1.7 0.00 0.00 0.00 98 1010.2
20260506024601 56 183 0.0 3.5 0.00 0.00 0.00 98 1010.5
20260506023059 56 183 0.0 2.6 0.00 0.00 0.00 97 1010.7
20260506021559 57 192 0.0 2.6 0.00 0.00 0.00 97 1010.9
20260506020052 57 193 0.9 3.5 0.00 0.00 0.00 96 1011.0
20260506014551 57 186 0.9 2.6 0.00 0.00 0.00 96 1011.1
20260506013049 57 193 0.0 1.7 0.00 0.00 0.00 96 1011.3
20260506011553 57 179 0.0 1.7 0.00 0.00 0.00 96 1011.5
20260506010054 57 174 0.0 1.7 0.00 0.00 0.00 96 1011.5
20260506004549 57 276 0.0 1.7 0.00 0.00 0.00 96 1011.4
20260506003047 57 185 0.0 2.6 0.00 0.00 0.00 96 1011.3
20260506001546 57 165 0.0 3.5 0.00 0.00 0.00 96 1011.4
20260506000044 57 194 0.0 2.6 0.00 0.00 0.00 96 1011.5
20260505234605 57 191 0.0 1.7 0.00 0.00 0.00 96 1011.7
20260505233048 57 146 0.0 3.5 0.00 0.00 0.00 96 1011.7
20260505231542 57 177 0.9 1.7 0.00 0.00 0.00 96 1011.6
20260505230043 57 181 0.0 2.6 0.00 0.00 0.00 95 1011.6
20260505224540 57 182 0.9 2.6 0.00 0.00 0.00 95 1011.8
20260505223040 57 186 0.9 2.6 0.00 0.00 0.00 95 1011.8
20260505221537 57 180 0.0 1.7 0.00 0.00 0.00 95 1012.0
20260505220033 57 187 0.0 3.5 0.00 0.00 0.00 95 1012.1
20260505214544 57 165 0.9 4.3 0.00 0.00 0.00 94 1012.0
20260505213033 57 219 2.6 6.1 0.00 0.00 0.00 94 1012.0
20260505211540 57 230 1.7 5.2 0.00 0.00 0.00 93 1012.1
20260505210030 58 231 0.9 4.3 0.00 0.00 0.00 93 1012.2